Terminal Aerodrome Forecast
Issued by NWS

Home | Current Version | Previous Version | Text Only | Print | Product List | Glossary On
Versions: 1 2 3 4 5 6 7 8 9 10 11 12 13 14 15 16 17 18 19 20 21 22 23 24 25 26 27 28 29 30 31 32 33 34 35 36 37 38 39 40 41 42 43 44 45 46 47 48 49 50
000
FTUS44 KBMX 281140
TAFASN
TAF
KASN 281140Z 2812/2912 00000KT 6SM BR SCT013
      TEMPO 2812/2814 5SM BR BKN013
     FM281500 09008KT P6SM BKN035
     FM290100 07003KT P6SM SCT250
      TEMPO 2908/2912 4SM BR=

USA.gov is the U.S. government's official web portal to all federal, state and local government web resources and services.